Seeley, CA

11:06 AM PST on February 10, 2016 (GMT -0800)
El Centro Naval Air Facility

Weather History for KNJK - February, 2013

Change the Weather History Date:

Thursday, February 14, 2013

  Actual Average (KCZZ) Record (KCZZ)
Temperature  
Mean Temperature 60 °F 49 °F  
Max Temperature 78 °F 64 °F 86 °F (2014)
Min Temperature 42 °F 35 °F 18 °F (1974)
Degree Days  
Heating Degree Days 5 16  
Month to date heating degree days 224  
Since 1 July heating degree days 1840  
Cooling Degree Days 0 0  
Month to date cooling degree days 0  
Year to date cooling degree days 0  
Growing Degree Days 10 (Base 50)    
Moisture  
Dew Point 25 °F    
Average Humidity 30    
Maximum Humidity 51    
Minimum Humidity 13    
Precipitation  
Precipitation 0.00 in 0.11 in 2.12 in (1954)
Month to date precipitation 1.49  
Year to date precipitation 4.47  
Sea Level Pressure  
Sea Level Pressure 30.16 in    
Wind  
Wind Speed 6 mph (WNW)    
Max Wind Speed 12 mph    
Max Gust Speed 16 mph    
Visibility 10 miles    
Events      
T = Trace of Precipitation, MM = Missing Value Source: NWS Daily Summary

Daily Weather History Graph

Daily Weather History Graph

Search for Another Location

Airport or City:

Trip Planner

Search our weather history database for the weather conditions in past years. The results will help you decide how hot, cold, wet, or windy it might be!

Date:

Astronomy

Feb. 14, 2013 Rise Set
Actual Time 6:26 AM PST 5:27 PM PST
Civil Twilight 6:01 AM PST 5:52 PM PST
Nautical Twilight 5:32 AM PST 6:21 PM PST
Astronomical Twilight 5:03 AM PST 6:50 PM PST
Moon 8:49 AM PST (2/14) 10:14 PM PST (2/14)
Length of Visible Light 11h 51m
Length of Day
11h 01m
Waxing Crescent, 22% of the Moon is Illuminated
Feb 14
Waxing Crescent
Feb 17
First Quarter
Feb 25
Full
Mar 4
Last Quarter
Mar 11
New

Hourly Weather History & Observations

Time (PST) Temp. Windchill Dew Point Humidity Pressure Visibility Wind Dir Wind Speed Gust Speed Precip Events Conditions
12:56 AM 46.9 °F - 24.1 °F 41% 30.17 in 10.0 mi WSW 6.9 mph - N/A   Clear
1:56 AM 44.1 °F 42.5 °F 21.9 °F 42% 30.17 in 10.0 mi WNW 3.5 mph - N/A   Clear
2:56 AM 46.9 °F - 23.0 °F 39% 30.16 in 10.0 mi Calm Calm - N/A   Clear
3:56 AM 43.0 °F 39.5 °F 23.0 °F 45% 30.15 in 10.0 mi WSW 5.8 mph - N/A   Clear
4:56 AM 42.1 °F 37.1 °F 23.0 °F 47% 30.17 in 10.0 mi WSW 8.1 mph - N/A   Clear
5:56 AM 42.1 °F 40.2 °F 25.0 °F 51% 30.17 in 10.0 mi SW 3.5 mph - N/A   Clear
6:56 AM 45.0 °F 40.6 °F 24.1 °F 44% 30.17 in 10.0 mi West 8.1 mph - N/A   Clear
7:56 AM 53.1 °F - 25.0 °F 34% 30.19 in 10.0 mi West 8.1 mph - N/A   Clear
8:56 AM 61.0 °F - 26.1 °F 26% 30.21 in 10.0 mi WNW 6.9 mph - N/A   Clear
9:56 AM 64.9 °F - 28.0 °F 25% 30.25 in 10.0 mi SW 6.9 mph - N/A   Clear
10:56 AM 72.0 °F - 23.0 °F 16% 30.20 in 10.0 mi Variable 4.6 mph - N/A   Clear
11:56 AM 75.0 °F - 23.0 °F 14% 30.18 in 10.0 mi NW 4.6 mph - N/A   Clear
12:56 PM 75.9 °F - 23.0 °F 14% 30.13 in 10.0 mi NNW 11.5 mph 16.1 mph N/A   Clear
1:56 PM 77.0 °F - 24.1 °F 14% 30.11 in 10.0 mi North 9.2 mph - N/A   Partly Cloudy
2:56 PM 78.1 °F - 23.0 °F 13% 30.11 in 10.0 mi NNW 9.2 mph - N/A   Scattered Clouds
3:56 PM 77.0 °F - 24.1 °F 14% 30.10 in 10.0 mi NNW 9.2 mph - N/A   Scattered Clouds
4:56 PM 73.0 °F - 24.1 °F 16% 30.09 in 10.0 mi NW 3.5 mph - N/A   Scattered Clouds
5:56 PM 68.0 °F - 27.0 °F 21% 30.11 in 10.0 mi West 3.5 mph - N/A   Scattered Clouds
6:56 PM 62.1 °F - 28.9 °F 29% 30.13 in 10.0 mi West 4.6 mph - N/A   Scattered Clouds
7:56 PM 55.9 °F - 25.0 °F 30% 30.16 in 10.0 mi West 8.1 mph - N/A   Clear
8:56 PM 55.0 °F - 25.0 °F 31% 30.16 in 10.0 mi Calm Calm - N/A   Clear
9:56 PM 53.1 °F - 28.9 °F 40% 30.19 in 10.0 mi WNW 4.6 mph - N/A   Clear
10:56 PM 52.0 °F - 30.9 °F 45% 30.20 in 10.0 mi West 4.6 mph - N/A   Clear
11:56 PM 52.0 °F - 28.9 °F 41% 30.20 in 10.0 mi West 8.1 mph - N/A   Clear